Vorticity
15 12 27 6 25 12 13 10 18 12 11 17 16 13 12 10 12 8 -0 11 16 14 3 6 1 18 5 1 5 7 19 24 -7 17 27 41 26 10 4 -12 2 3 2 18 46 16 23 13 17 -1 11 15 12 12
21 18 29 14 21 20 17 9 16 17 14 14 11 12 15 13 15 1 25 6 3 3 -1 3 -0 6 14 15 13 9 0 -7 -30 -13 19 37 27 10 30 12 55 1 -2 1 -6 16 -2 11 10 8 16 20 22 10
14 14 12 9 10 10 9 11 10 13 16 14 14 10 9 -1 4 15 12 16 16 6 13 12 19 10 19 28 16 6 9 9 14 24 -22 6 4 -9 37 55 32 19 11 8 3 -1 2 32 -4 7 16 23 -11 -7
9 10 12 16 12 10 11 12 14 12 17 12 14 11 28 29 26 19 4 6 9 9 5 7 6 13 17 21 24 7 9 9 4 4 4 -4 -5 3 2 -2 17 0 -6 -13 19 -5 15 -3 13 -4 8 18 17 5
13 14 15 18 15 11 12 13 14 13 14 13 9 19 25 12 3 3 -3 1 6 6 -13 -8 -3 -1 6 -17 -5 9 41 16 11 12 11 15 9 11 13 27 11 19 -13 -1 -31 58 15 -5 12 8 22 25 9 16
16 15 13 12 11 11 12 12 13 14 15 13 12 10 4 10 15 20 5 -2 4 4 9 8 15 9 13 3 26 2 7 20 18 11 19 31 13 22 25 14 16 27 38 -6 -30 37 3 21 6 16 16 22 11 15
10 9 9 10 10 11 11 12 12 12 13 15 14 11 9 4 9 8 -2 4 12 19 11 28 37 23 5 -7 39 13 6 7 6 15 15 -6 4 -7 18 -18 21 23 32 30 25 12 16 1 16 22 3 5 17 11
7 7 7 6 7 8 9 9 12 12 13 15 16 14 12 8 8 10 9 13 11 9 12 1 -3 13 12 22 10 6 13 24 27 20 6 12 11 6 10 8 6 13 14 22 -14 -5 13 18 14 15 3 8 15 7
14 10 8 8 11 9 9 7 11 11 10 13 16 17 17 13 7 8 7 6 9 10 5 6 8 13 25 36 30 6 5 3 14 21 19 12 7 -0 2 0 5 11 11 21 22 11 6 0 16 20 25 16 10 11
13 27 28 24 25 43 46 56 41 8 10 10 10 6 6 9 9 10 12 8 8 7 8 1 2 -0 11 -45 -8 23 24 22 4 14 45 40 10 14 23 16 13 5 5 6 6 15 8 23 20 8 7 11 5 9
19 21 19 13 17 6 19 28 43 42 8 9 4 6 3 3 9 13 25 29 29 18 20 11 16 18 10 7 11 -3 -5 11 13 15 5 5 1 -5 13 13 16 18 20 22 21 23 25 17 11 11 12 15 15 12
0 7 18 22 17 -4 4 38 24 36 21 6 4 16 10 -6 12 9 32 14 7 19 3 1 13 31 18 15 13 14 19 21 6 20 11 8 6 12 12 13 14 15 16 19 20 20 14 9 11 13 14 11 8 17
2 3 5 15 14 26 11 27 19 16 29 26 7 21 -5 14 8 1 13 -11 13 -5 -11 4 14 23 19 16 23 12 13 14 27 20 4 1 11 10 13 13 13 16 15 16 14 13 15 16 14 14 13 16 18 15
7 5 5 13 18 13 15 6 27 19 18 24 -6 23 1 7 20 15 -8 -6 15 9 7 10 14 12 21 15 12 7 14 11 11 7 7 10 10 17 20 17 12 10 10 12 13 14 15 14 14 15 15 14 13 12
6 6 13 13 17 17 13 10 8 19 15 -4 1 14 25 4 -5 -0 19 20 14 7 11 17 25 23 11 4 19 7 13 15 10 10 10 15 17 17 16 15 15 15 15 15 14 13 11 11 10 10 10 13 16 14
11 16 16 17 16 16 18 17 21 12 12 -16 2 -2 8 18 18 11 5 10 13 18 22 21 14 18 20 9 16 8 9 12 8 12 12 8 6 8 10 11 10 9 8 8 8 8 8 9 8 7 5 4 1 0
14 14 14 13 15 14 15 19 19 19 26 34 15 6 2 7 2 6 9 11 17 20 17 14 16 6 16 14 13 14 4 1 2 6 8 11 10 7 5 3 2 2 2 2 2 3 3 3 3 2 1 -2 -1 -0
13 12 12 13 16 18 19 19 21 10 13 11 6 7 12 11 16 18 22 24 25 23 19 -5 4 11 3 9 8 4 9 10 10 5 2 3 4 4 5 6 6 7 7 8 8 9 9 10 10 10 11 11 11 11
12 12 14 15 17 21 24 17 19 10 15 17 22 23 24 21 23 19 19 19 19 15 15 16 8 13 14 10 10 10 7 5 4 2 3 4 6 9 10 11 12 13 13 13 13 13 14 13 13 14 14 13 14 14
15 14 17 18 18 19 20 13 14 18 14 27 17 17 18 18 18 17 15 15 14 11 6 6 4 4 4 10 8 4 5 4 5 7 9 11 13 13 14 13 14 13 13 14 13 14 14 14 14 14 13 13 13 14
21 21 14 13 15 18 17 15 17 9 10 15 10 10 8 8 6 7 7 7 8 9 11 13 14 12 10 8 5 5 6 7 9 11 12 14 13 15 15 15 14 13 13 13 13 13 13 13 14 14 14 15 17 17
16 10 12 16 17 13 13 21 19 16 15 8 9 10 9 10 10 9 10 10 11 12 11 8 6 6 8 7 8 9 11 13 16 17 15 15 16 14 13 14 16 18 19 21 21 21 24 25 22 21 21 22 20 21
11 14 12 17 15 12 9 9 11 14 13 8 9 9 8 10 9 11 14 10 8 9 10 11 7 9 13 17 18 17 15 15 13 14 11 11 13 19 20 21 20 19 19 19 17 19 20 20 20 18 18 18 18 17
16 15 13 12 16 13 9 9 10 10 8 10 9 11 11 9 16 17 12 13 11 1 11 18 17 17 17 16 14 14 14 15 13 17 19 19 21 21 20 18 17 16 15 14 16 17 17 18 17 16 15 15 15 14
15 15 10 12 11 10 9 9 10 14 10 12 15 10 10 15 13 18 7 -6 11 16 15 16 16 14 15 17 17 17 12 13 16 18 16 14 17 17 18 18 19 20 16 13 14 14 16 18 22 19 14 14 13 14
14 17 11 11 11 11 14 12 10 11 15 14 7 15 14 17 17 9 -6 13 13 14 15 15 14 16 17 16 17 13 11 12 12 13 11 10 12 12 12 13 16 17 19 19 21 18 18 23 23 26 25 20 18 18
16 11 13 12 12 11 12 11 13 12 14 12 8 16 17 12 15 -7 12 12 14 12 12 12 12 13 15 15 17 11 8 11 13 12 13 14 15 13 13 14 18 24 27 26 20 21 23 24 25 24 24 23 22 22
16 12 10 11 9 12 12 15 11 14 11 11 16 13 15 10 3 12 9 13 13 12 12 11 11 12 12 12 14 13 9 11 13 16 15 13 15 13 16 23 31 31 28 21 19 18 19 21 23 25 26 28 29 29
14 11 9 12 14 14 13 11 8 9 8 12 14 13 12 11 13 10 10 13 12 11 12 14 14 15 15 11 10 17 10 9 12 14 13 14 10 12 21 35 33 28 21 16 16 18 17 16 15 14 15 17 20 23
17 17 17 15 14 14 14 13 10 8 9 10 11 13 12 11 13 11 9 11 12 14 10 10 14 13 14 17 16 14 13 11 11 9 9 11 9 14 25 36 26 21 18 16 16 17 16 15 12 11 13 15 17 19
9 10 9 10 10 10 10 9 12 13 13 10 8 9 11 12 10 11 9 9 9 13 13 10 12 13 13 14 14 16 16 12 12 11 11 10 13 16 23 36 24 15 16 17 16 16 18 17 14 12 14 16 16 14
13 13 10 9 8 7 6 8 12 12 14 12 8 10 8 13 12 10 11 9 10 12 15 12 11 11 13 12 10 12 14 13 11 12 11 12 12 15 18 30 34 22 17 15 14 15 17 20 24 25 22 16 15 15
11 11 10 11 12 11 10 10 14 16 10 16 9 10 9 10 13 12 14 13 12 9 13 15 11 7 8 13 12 13 15 15 12 13 13 12 12 13 16 17 28 35 26 21 20 17 17 17 18 19 18 15 14 12
Height
2934 2938 2942 2947 2951 2956 2961 2966 2968 2969 2974 2977 2979 2981 2984 2987 2990 2990 2990 2992 2993 2994 2995 2998 2999 3002 3003 3005 3004 3005 3005 3006 3003 3002 3000 3000 2998 2994 2994 2995 2996 2997 2998 2998 3000 2996 2989 2994 2997 2998 2998 2996 2997 2997
2928 2932 2936 2941 2945 2950 2954 2958 2960 2963 2967 2969 2970 2974 2977 2980 2981 2983 2985 2985 2984 2987 2991 2993 2994 2994 2997 2997 2998 2997 2998 2999 3000 2995 2995 2992 2993 2989 2986 2985 2990 2988 2988 2990 2990 2985 2987 2987 2988 2989 2989 2989 2990 2991
2924 2928 2932 2936 2940 2944 2948 2952 2954 2957 2962 2963 2964 2967 2970 2972 2973 2975 2978 2977 2978 2980 2984 2985 2988 2987 2988 2990 2991 2989 2988 2994 2990 2990 2988 2986 2987 2982 2979 2977 2980 2980 2981 2979 2977 2979 2980 2981 2981 2983 2985 2986 2983 2985
2923 2927 2930 2933 2937 2940 2944 2947 2949 2952 2953 2956 2959 2962 2964 2964 2968 2968 2972 2973 2974 2977 2977 2979 2980 2978 2980 2981 2981 2980 2981 2984 2982 2981 2980 2978 2978 2979 2976 2974 2972 2974 2972 2971 2969 2969 2970 2972 2974 2975 2976 2976 2976 2977
2922 2924 2927 2930 2933 2936 2939 2941 2943 2945 2948 2950 2954 2957 2958 2961 2962 2964 2967 2970 2970 2973 2973 2972 2972 2974 2972 2973 2973 2971 2970 2972 2974 2971 2970 2970 2970 2970 2967 2965 2962 2963 2962 2962 2959 2962 2962 2964 2966 2964 2966 2966 2968 2968
2921 2923 2925 2927 2929 2931 2933 2935 2937 2939 2942 2945 2948 2951 2954 2957 2958 2960 2962 2965 2966 2968 2966 2966 2964 2963 2965 2964 2965 2964 2963 2962 2963 2962 2961 2960 2963 2963 2958 2951 2951 2951 2951 2951 2951 2956 2957 2956 2956 2957 2957 2958 2960 2960
2920 2922 2923 2924 2925 2927 2928 2930 2932 2934 2937 2940 2943 2946 2949 2952 2953 2955 2958 2961 2961 2962 2961 2959 2955 2956 2955 2954 2953 2955 2957 2954 2955 2955 2955 2953 2955 2955 2948 2944 2945 2945 2945 2944 2944 2947 2948 2950 2948 2948 2949 2951 2951 2952
2921 2921 2921 2922 2922 2922 2923 2925 2926 2929 2932 2935 2938 2941 2945 2947 2949 2950 2953 2954 2955 2956 2957 2955 2951 2950 2948 2948 2948 2947 2946 2946 2947 2948 2948 2946 2946 2945 2940 2940 2939 2939 2938 2937 2936 2939 2942 2942 2941 2941 2941 2942 2944 2945
2920 2919 2918 2918 2917 2917 2917 2918 2921 2924 2928 2931 2935 2938 2939 2941 2943 2946 2949 2949 2950 2953 2949 2947 2944 2944 2941 2941 2941 2940 2941 2941 2942 2939 2939 2940 2937 2935 2933 2933 2932 2931 2930 2930 2931 2933 2933 2933 2932 2931 2932 2934 2935 2937
2919 2916 2915 2914 2912 2911 2908 2909 2912 2917 2923 2928 2930 2932 2933 2935 2939 2942 2944 2944 2942 2941 2940 2937 2939 2939 2940 2937 2937 2940 2937 2937 2933 2932 2930 2927 2925 2927 2927 2925 2924 2924 2923 2923 2923 2924 2923 2922 2923 2924 2926 2926 2927 2928
2921 2918 2915 2913 2911 2910 2908 2905 2904 2909 2917 2921 2923 2926 2929 2933 2935 2937 2937 2936 2934 2932 2929 2929 2930 2931 2932 2934 2933 2935 2933 2931 2927 2926 2925 2920 2918 2917 2918 2917 2916 2915 2915 2914 2914 2914 2914 2914 2916 2917 2918 2919 2920 2921
2924 2921 2917 2914 2913 2911 2907 2904 2904 2906 2909 2915 2921 2924 2928 2930 2930 2931 2927 2926 2925 2925 2921 2921 2922 2924 2923 2925 2927 2927 2925 2924 2919 2917 2916 2911 2909 2909 2909 2908 2908 2908 2907 2907 2906 2906 2907 2907 2908 2909 2911 2912 2913 2913
2926 2923 2920 2916 2913 2911 2910 2907 2907 2908 2911 2915 2920 2923 2923 2923 2921 2919 2917 2916 2916 2915 2915 2916 2917 2918 2918 2920 2920 2919 2916 2914 2911 2909 2906 2903 2903 2903 2903 2903 2902 2901 2900 2900 2900 2900 2900 2901 2901 2902 2903 2904 2905 2906
2927 2923 2920 2916 2913 2911 2910 2910 2910 2910 2911 2914 2916 2917 2918 2914 2911 2909 2910 2911 2912 2911 2912 2912 2912 2913 2912 2912 2911 2910 2908 2907 2904 2901 2898 2897 2897 2897 2897 2896 2896 2896 2896 2895 2895 2895 2895 2895 2896 2896 2897 2898 2898 2899
2924 2921 2918 2914 2912 2910 2909 2909 2909 2911 2912 2912 2913 2911 2907 2906 2906 2906 2906 2906 2906 2906 2907 2907 2906 2907 2906 2906 2905 2904 2902 2899 2897 2894 2894 2894 2894 2893 2893 2892 2892 2892 2891 2891 2890 2890 2890 2890 2890 2890 2890 2891 2892 2892
2921 2918 2915 2912 2910 2908 2907 2907 2907 2909 2908 2907 2905 2902 2901 2901 2901 2901 2901 2901 2901 2900 2900 2901 2901 2901 2901 2901 2899 2897 2896 2894 2892 2892 2892 2891 2891 2890 2890 2889 2888 2888 2887 2887 2886 2886 2885 2885 2885 2884 2884 2885 2885 2885
2916 2913 2910 2908 2907 2905 2904 2904 2903 2903 2903 2900 2897 2897 2896 2896 2896 2895 2894 2894 2895 2895 2896 2897 2897 2897 2896 2894 2894 2892 2891 2891 2890 2890 2889 2889 2888 2887 2886 2885 2884 2883 2882 2882 2881 2880 2879 2878 2877 2876 2876 2878 2876 2875
2912 2909 2906 2904 2902 2900 2900 2899 2899 2897 2895 2894 2894 2893 2892 2891 2890 2890 2889 2889 2890 2890 2892 2893 2893 2892 2892 2891 2889 2889 2888 2888 2887 2887 2886 2884 2883 2881 2879 2878 2877 2875 2874 2872 2870 2869 2867 2867 2865 2864 2864 2864 2863 2862
2909 2906 2903 2901 2899 2897 2896 2895 2895 2893 2892 2891 2890 2889 2888 2888 2887 2887 2887 2887 2888 2889 2890 2890 2891 2889 2889 2888 2887 2886 2885 2884 2883 2882 2881 2878 2875 2872 2870 2868 2866 2863 2861 2860 2858 2857 2855 2854 2852 2851 2850 2848 2847 2847
2906 2903 2901 2898 2896 2895 2894 2894 2893 2892 2891 2890 2889 2889 2888 2888 2888 2888 2888 2888 2888 2889 2889 2889 2888 2887 2887 2885 2884 2883 2881 2879 2877 2875 2874 2871 2867 2863 2861 2857 2854 2850 2848 2846 2844 2843 2841 2839 2838 2837 2835 2834 2832 2832
2903 2901 2899 2898 2896 2895 2894 2892 2892 2892 2891 2891 2891 2890 2890 2890 2889 2889 2889 2889 2888 2888 2887 2886 2885 2884 2882 2881 2879 2877 2875 2872 2869 2865 2862 2859 2858 2853 2850 2847 2842 2839 2836 2833 2831 2829 2827 2824 2823 2822 2820 2819 2819 2817
2902 2900 2898 2897 2896 2895 2894 2893 2893 2893 2893 2893 2892 2891 2891 2890 2890 2889 2888 2888 2887 2886 2885 2883 2882 2880 2878 2876 2873 2870 2868 2865 2862 2858 2854 2849 2846 2843 2840 2835 2830 2827 2824 2821 2817 2815 2814 2813 2810 2808 2807 2807 2806 2806
2902 2900 2898 2897 2896 2895 2896 2894 2894 2893 2893 2893 2892 2891 2891 2890 2889 2888 2887 2886 2885 2883 2882 2880 2878 2875 2873 2870 2867 2863 2860 2858 2854 2850 2846 2841 2837 2832 2828 2825 2820 2815 2813 2811 2807 2805 2804 2802 2800 2798 2798 2797 2797 2796
2900 2899 2898 2897 2896 2896 2896 2895 2894 2893 2893 2892 2891 2890 2889 2888 2887 2886 2885 2884 2883 2881 2878 2875 2872 2870 2867 2864 2861 2858 2854 2851 2848 2844 2838 2833 2829 2826 2820 2816 2812 2808 2804 2801 2799 2796 2794 2793 2791 2790 2789 2789 2789 2789
2900 2899 2899 2897 2896 2897 2896 2895 2894 2893 2892 2891 2890 2889 2888 2887 2886 2885 2884 2883 2881 2878 2875 2872 2869 2866 2863 2860 2857 2854 2850 2846 2842 2838 2834 2829 2824 2820 2815 2811 2807 2802 2797 2793 2791 2788 2786 2784 2783 2782 2781 2781 2782 2782
2898 2897 2898 2896 2896 2896 2895 2894 2894 2893 2892 2891 2890 2889 2887 2886 2885 2884 2883 2881 2878 2875 2872 2869 2866 2864 2860 2856 2853 2851 2848 2843 2839 2834 2830 2824 2819 2814 2809 2804 2800 2797 2791 2787 2783 2781 2779 2777 2775 2774 2773 2774 2775 2776
2897 2897 2896 2896 2896 2895 2895 2894 2893 2892 2891 2890 2889 2888 2886 2885 2884 2884 2881 2879 2876 2873 2870 2867 2864 2861 2857 2854 2851 2848 2845 2841 2836 2832 2827 2822 2816 2811 2804 2798 2792 2788 2784 2781 2779 2777 2775 2773 2771 2770 2770 2770 2771 2772
2897 2897 2897 2897 2896 2895 2894 2893 2893 2892 2891 2890 2889 2888 2887 2886 2885 2883 2880 2878 2875 2872 2869 2866 2863 2859 2855 2852 2849 2846 2843 2840 2836 2832 2827 2821 2814 2808 2800 2793 2787 2782 2780 2778 2777 2775 2774 2772 2771 2770 2770 2769 2770 2770
2898 2897 2897 2896 2895 2895 2894 2894 2893 2893 2892 2890 2889 2887 2887 2885 2883 2881 2880 2877 2874 2872 2869 2867 2863 2860 2856 2852 2848 2845 2841 2838 2834 2829 2823 2817 2811 2805 2797 2789 2784 2781 2780 2779 2778 2777 2776 2775 2775 2774 2774 2774 2774 2775
2899 2898 2897 2896 2895 2895 2894 2894 2893 2892 2891 2890 2889 2887 2886 2884 2883 2881 2879 2876 2874 2872 2869 2866 2863 2860 2857 2853 2850 2846 2842 2838 2833 2827 2821 2815 2809 2803 2797 2790 2786 2784 2783 2782 2781 2780 2779 2779 2779 2779 2780 2780 2780 2781
2900 2899 2898 2897 2896 2895 2894 2893 2892 2891 2890 2889 2888 2887 2885 2884 2882 2880 2878 2876 2874 2871 2869 2866 2863 2860 2857 2853 2850 2846 2843 2839 2834 2829 2825 2818 2813 2807 2800 2794 2790 2788 2787 2786 2785 2784 2783 2783 2783 2784 2784 2785 2786 2788
2900 2899 2898 2897 2896 2895 2894 2893 2891 2890 2889 2888 2887 2886 2885 2883 2882 2880 2878 2876 2874 2872 2869 2867 2864 2861 2857 2853 2850 2846 2842 2838 2835 2831 2826 2822 2817 2811 2805 2799 2794 2792 2791 2790 2789 2788 2788 2787 2787 2787 2789 2790 2792 2794
2898 2897 2896 2895 2894 2893 2892 2891 2890 2888 2887 2886 2886 2885 2884 2883 2881 2880 2878 2876 2874 2872 2869 2867 2864 2861 2858 2855 2852 2849 2845 2841 2837 2834 2830 2826 2822 2817 2812 2806 2801 2797 2796 2795 2794 2793 2793 2793 2793 2793 2794 2796 2797 2799